When you browse on this site, cookies collect data to enhance your experience and personalize the content and advertising you see.
Visit our Privacy Policy to learn more. By continuing to use the site, you agree to this use of cookies and data.
  • în România
  • Lista ţărilor
  • Pe 7 zile
  • Temperatura apei
  • Hartă satelitară
  • Meteo pe hartă
  • Widget-uri
  • user-avatar
    Intrare

    Meteo pe oră la Schegolevo

    Astăzi, 19 Februarie, Marţi

    Timp Temperatura Precipitaţii Vânt Presiune Umiditate
    00:00 -9°C° 0 mm 2 m/s 747 mmHg 89%
    01:00 -9°C° 0 mm 3 m/s 746 mmHg 88%
    02:00 -9°C° 0 mm 3 m/s 745 mmHg 87%
    03:00 -8°C° 0 mm 3 m/s 745 mmHg 85%
    04:00 -9°C° 0 mm 4 m/s 744 mmHg 83%
    05:00 -8°C° 0 mm 4 m/s 743 mmHg 81%
    06:00 -8°C° 0 mm 5 m/s 743 mmHg 78%
    07:00 -7°C° 0 mm 5 m/s 742 mmHg 75%
    08:00 -8°C° 0 mm 6 m/s 741 mmHg 71%
    09:00 -5°C° 0 mm 6 m/s 741 mmHg 73%
    10:00 -4°C° 0 mm 6 m/s 741 mmHg 75%
    11:00 -2°C° 0 mm 6 m/s 740 mmHg 76%
    12:00 -1°C° 0 mm 5 m/s 740 mmHg 78%
    13:00 -1°C° 0 mm 5 m/s 740 mmHg 79%
    14:00 0°C° 0 mm 4 m/s 739 mmHg 82%
    15:00 0°C° 0 mm 4 m/s 739 mmHg 82%
    16:00 -1°C° 0 mm 4 m/s 738 mmHg 82%
    17:00 -2°C° 0 mm 4 m/s 737 mmHg 82%
    18:00 -2°C° 0 mm 4 m/s 737 mmHg 84%
    19:00 -2°C° 0 mm 5 m/s 736 mmHg 85%
    20:00 -4°C° 0 mm 5 m/s 736 mmHg 86%
    21:00 -2°C° 0 mm 5 m/s 735 mmHg 87%
    22:00 -2°C° 0 mm 5 m/s 734 mmHg 87%
    23:00 -1°C° 0 mm 5 m/s 733 mmHg 88%

    Mâine, 20 Februarie, Miercuri

    Timp Temperatura Precipitaţii Vânt Presiune Umiditate
    00:00 -1°C° 0 mm 5 m/s 733 mmHg 88%
    01:00 -1°C° 0 mm 5 m/s 732 mmHg 89%
    02:00 -1°C° 0 mm 5 m/s 731 mmHg 90%
    03:00 0°C° 0.1 mm 5 m/s 731 mmHg 90%
    04:00 0°C° 0.1 mm 5 m/s 730 mmHg 89%
    05:00 0°C° 0.1 mm 5 m/s 730 mmHg 89%
    06:00 0°C° 0.1 mm 5 m/s 730 mmHg 90%
    07:00 0°C° 0.1 mm 5 m/s 729 mmHg 90%
    08:00 0°C° 0.1 mm 4 m/s 729 mmHg 90%
    09:00 0°C° 0 mm 4 m/s 729 mmHg 89%
    10:00 0°C° 0 mm 4 m/s 729 mmHg 89%
    11:00 0°C° 0 mm 4 m/s 729 mmHg 89%
    12:00 0°C° 0.1 mm 4 m/s 729 mmHg 88%
    13:00 0°C° 0.1 mm 4 m/s 729 mmHg 87%
    14:00 0°C° 0.1 mm 5 m/s 729 mmHg 86%
    15:00 0°C° 0.1 mm 4 m/s 728 mmHg 87%
    16:00 0°C° 0.1 mm 4 m/s 728 mmHg 87%
    17:00 0°C° 0.1 mm 4 m/s 727 mmHg 87%
    18:00 0°C° 0.2 mm 4 m/s 727 mmHg 88%
    19:00 -1°C° 0.2 mm 4 m/s 727 mmHg 89%
    20:00 -1°C° 0.2 mm 4 m/s 727 mmHg 90%
    21:00 -2°C° 0.2 mm 4 m/s 727 mmHg 88%
    22:00 -3°C° 0.2 mm 4 m/s 727 mmHg 85%
    23:00 -4°C° 0.2 mm 4 m/s 727 mmHg 83%

    Poimâine, 21 Februarie, Joi

    Timp Temperatura Precipitaţii Vânt Presiune Umiditate
    00:00 -4°C° 0.1 mm 4 m/s 727 mmHg 84%
    01:00 -4°C° 0.1 mm 4 m/s 728 mmHg 85%
    02:00 -4°C° 0.1 mm 4 m/s 728 mmHg 86%
    03:00 -6°C° 0.2 mm 5 m/s 728 mmHg 85%
    04:00 -6°C° 0.2 mm 5 m/s 728 mmHg 84%
    05:00 -6°C° 0.2 mm 5 m/s 728 mmHg 83%
    06:00 -8°C° 0.1 mm 6 m/s 729 mmHg 83%
    07:00 -8°C° 0.1 mm 6 m/s 730 mmHg 82%
    08:00 -8°C° 0.1 mm 6 m/s 730 mmHg 82%
    09:00 -8°C° 0.1 mm 7 m/s 731 mmHg 81%
    10:00 -8°C° 0.1 mm 7 m/s 732 mmHg 80%
    11:00 -8°C° 0.1 mm 7 m/s 733 mmHg 80%
    12:00 -9°C° 0.1 mm 7 m/s 734 mmHg 78%
    13:00 -9°C° 0.1 mm 7 m/s 735 mmHg 77%
    14:00 -9°C° 0.1 mm 7 m/s 735 mmHg 76%
    15:00 -10°C° 0.1 mm 6 m/s 736 mmHg 76%
    16:00 -11°C° 0.1 mm 6 m/s 737 mmHg 76%
    17:00 -12°C° 0.1 mm 6 m/s 738 mmHg 76%
    18:00 -12°C° 0 mm 6 m/s 739 mmHg 75%
    19:00 -14°C° 0 mm 6 m/s 740 mmHg 75%
    20:00 -14°C° 0 mm 6 m/s 741 mmHg 74%
    21:00 -14°C° 0.1 mm 6 m/s 741 mmHg 74%
    22:00 -14°C° 0.1 mm 6 m/s 742 mmHg 74%
    23:00 -14°C° 0.1 mm 6 m/s 742 mmHg 74%

    22 Februarie, Vineri

    Timp Temperatura Precipitaţii Vânt Presiune Umiditate
    00:00 -15°C° 0.1 mm 6 m/s 743 mmHg 74%
    01:00 -15°C° 0.1 mm 6 m/s 743 mmHg 74%
    02:00 -15°C° 0.1 mm 6 m/s 744 mmHg 74%
    03:00 -16°C° 0 mm 6 m/s 744 mmHg 75%
    04:00 -16°C° 0 mm 6 m/s 744 mmHg 75%
    05:00 -16°C° 0 mm 6 m/s 744 mmHg 76%
    06:00 -17°C° 0 mm 6 m/s 745 mmHg 75%
    07:00 -17°C° 0 mm 6 m/s 746 mmHg 75%
    08:00 -17°C° 0 mm 6 m/s 746 mmHg 75%
    09:00 -17°C° 0 mm 7 m/s 746 mmHg 73%
    10:00 -17°C° 0 mm 7 m/s 747 mmHg 72%
    11:00 -15°C° 0 mm 7 m/s 747 mmHg 70%
    12:00 -15°C° 0 mm 7 m/s 747 mmHg 69%
    13:00 -14°C° 0 mm 7 m/s 747 mmHg 68%
    14:00 -14°C° 0 mm 7 m/s 747 mmHg 67%
    15:00 -14°C° 0.1 mm 7 m/s 748 mmHg 69%
    16:00 -14°C° 0.1 mm 6 m/s 748 mmHg 71%
    17:00 -15°C° 0.1 mm 6 m/s 749 mmHg 73%
    18:00 -15°C° 0 mm 6 m/s 750 mmHg 74%
    19:00 -15°C° 0 mm 6 m/s 750 mmHg 75%
    20:00 -15°C° 0 mm 6 m/s 751 mmHg 76%
    21:00 -14°C° 0 mm 5 m/s 751 mmHg 77%
    22:00 -14°C° 0 mm 5 m/s 752 mmHg 78%
    23:00 -14°C° 0 mm 5 m/s 752 mmHg 79%

    23 Februarie, Sâmbătă

    Timp Temperatura Precipitaţii Vânt Presiune Umiditate
    00:00 -15°C° 0 mm 5 m/s 753 mmHg 80%
    01:00 -15°C° 0 mm 5 m/s 753 mmHg 81%
    02:00 -15°C° 0 mm 4 m/s 753 mmHg 82%
    03:00 -16°C° 0 mm 4 m/s 754 mmHg 83%
    04:00 -16°C° 0 mm 4 m/s 754 mmHg 84%
    05:00 -16°C° 0 mm 4 m/s 754 mmHg 86%
    06:00 -17°C° 0 mm 4 m/s 754 mmHg 87%
    07:00 -16°C° 0 mm 3 m/s 754 mmHg 88%
    08:00 -16°C° 0 mm 3 m/s 754 mmHg 89%
    09:00 -15°C° 0 mm 3 m/s 754 mmHg 84%
    10:00 -14°C° 0 mm 3 m/s 754 mmHg 80%
    11:00 -12°C° 0 mm 2 m/s 755 mmHg 76%
    12:00 -12°C° 0 mm 2 m/s 754 mmHg 73%
    13:00 -10°C° 0 mm 2 m/s 754 mmHg 70%
    14:00 -9°C° 0 mm 2 m/s 754 mmHg 67%
    15:00 -9°C° 0 mm 2 m/s 753 mmHg 71%
    16:00 -10°C° 0 mm 2 m/s 753 mmHg 76%
    17:00 -9°C° 0 mm 1 m/s 753 mmHg 80%
    18:00 -9°C° 0 mm 1 m/s 753 mmHg 81%
    19:00 -9°C° 0 mm 1 m/s 753 mmHg 83%
    20:00 -9°C° 0 mm 1 m/s 753 mmHg 84%
    21:00 -9°C° 0 mm 1 m/s 753 mmHg 83%
    22:00 -9°C° 0 mm 1 m/s 753 mmHg 83%
    23:00 -9°C° 0 mm 1 m/s 753 mmHg 82%

    24 Februarie, Duminică

    Timp Temperatura Precipitaţii Vânt Presiune Umiditate
    00:00 -9°C° 0 mm 1 m/s 753 mmHg 83%
    01:00 -9°C° 0 mm 1 m/s 753 mmHg 84%
    02:00 -9°C° 0 mm 1 m/s 753 mmHg 85%
    03:00 -9°C° 0 mm 1 m/s 753 mmHg 86%
    04:00 -8°C° 0 mm 1 m/s 754 mmHg 88%
    05:00 -8°C° 0 mm 1 m/s 754 mmHg 89%
    06:00 -8°C° 0 mm 1 m/s 754 mmHg 90%
    07:00 -8°C° 0 mm 1 m/s 754 mmHg 91%
    08:00 -8°C° 0 mm 1 m/s 755 mmHg 92%
    09:00 -7°C° 0 mm 1 m/s 755 mmHg 89%
    10:00 -6°C° 0 mm 1 m/s 755 mmHg 86%
    11:00 -4°C° 0 mm 1 m/s 755 mmHg 83%
    12:00 -3°C° 0 mm 1 m/s 755 mmHg 83%
    13:00 -3°C° 0 mm 1 m/s 755 mmHg 82%
    14:00 -2°C° 0 mm 1 m/s 755 mmHg 81%
    15:00 -2°C° 0 mm 1 m/s 755 mmHg 85%
    16:00 -2°C° 0 mm 1 m/s 755 mmHg 89%
    17:00 -3°C° 0 mm 1 m/s 755 mmHg 92%
    18:00 -3°C° 0 mm 1 m/s 755 mmHg 93%
    19:00 -3°C° 0 mm 1 m/s 755 mmHg 94%
    20:00 -3°C° 0 mm 1 m/s 755 mmHg 95%
    21:00 -4°C° 0 mm 1 m/s 754 mmHg 95%
    22:00 -4°C° 0 mm 1 m/s 754 mmHg 96%
    23:00 -6°C° 0 mm 1 m/s 754 mmHg 96%
    Arată mai mult